Overview Statistics Trail Chart Weather Telemetry Raw packets
 

This is the latest recevied weather packets stored in our database for station/object G4KVI. If no packets are shown the sender has not sent any weather packets the latest 10 day(s).

<< 7 8 9 10 11 12 13 >>
Time Temp. Humidity Pressure Rain* Wind** Luminosity Snow
1788541804 16.67° C 73% 1019.7 hPa 0 mm - 44 W/m² -
1788541504 16.67° C 73% 1019.8 hPa 0 mm - 34 W/m² -
1788541204 16.67° C 73% 1019.9 hPa 0 mm - 46 W/m² -
1788540904 16.67° C 73% 1019.9 hPa 0 mm - 61 W/m² -
1788540604 16.67° C 73% 1019.7 hPa 0 mm - 54 W/m² -
1788540304 16.67° C 72% 1019.8 hPa 0 mm - 55 W/m² -
1788540004 16.67° C 72% 1019.5 hPa 0 mm - 58 W/m² -
1788539704 16.67° C 72% 1019.6 hPa 0 mm - 55 W/m² -
1788539404 16.67° C 71% 1019.8 hPa 0 mm - 56 W/m² -
1788539104 16.67° C 71% 1019.8 hPa 0 mm - 62 W/m² -
1788538804 17.22° C 71% 1019.4 hPa 0 mm - 75 W/m² -
1788538504 17.22° C 71% 1019.6 hPa 0 mm - 83 W/m² -
1788538204 17.22° C 71% 1019.6 hPa 0 mm - 83 W/m² -
1788537904 17.22° C 71% 1019.4 hPa 0 mm - 83 W/m² -
1788537604 17.22° C 70% 1019.5 hPa 0 mm - 88 W/m² -
1788537304 17.22° C 69% 1019.4 hPa 0 mm - 88 W/m² -
1788537004 17.22° C 69% 1019.4 hPa 0 mm - 105 W/m² -
1788536704 17.22° C 69% 1019.3 hPa 0 mm - 110 W/m² -
1788536404 17.78° C 70% 1019.3 hPa 0 mm - 122 W/m² -
1788536104 17.22° C 71% 1019.6 hPa 0 mm - 138 W/m² -
1788535804 17.22° C 70% 1019.4 hPa 0 mm - 151 W/m² -
1788535504 17.22° C 70% 1019.3 hPa 0 mm - 158 W/m² -
1788535221 17.78° C 70% 1019.4 hPa 0 mm - 136 W/m² -
1788534904 17.78° C 70% 1019.2 hPa 0 mm - 135 W/m² -
1788534604 17.78° C 70% 1019.3 hPa 0 mm - 144 W/m² -

* Rain latest hour (hover to see other rain measurements)
** Current wind speed in m/s (hover to see current wind gust speed)